Tracking 22081 objects as of 4-Dec-2020
HD Live streaming from Space Station
objects crossing your sky now

SL-8 DEB

Track SL-8 DEB now!
10-day predictions


NORAD ID: 43117
Int'l Code: 2018-004G
Perigee: 760.9 km
Apogee: 790.6 km
Inclination: 74.1 °
Period: 100.2 minutes
Semi major axis: 7146 km
RCS: Unknown
Launch date: January 12, 2018
Source: Commonwealth of Independent States (former USSR) (CIS)
Launch site: SRIHARIKOTA (SRI)

Note: This is SATELLITE DEBRIS
aabbcc
Your satellite tracking list
Your tracking list is empty




NASA's NSSDC Master Catalog

Two Line Element Set (TLE):
1 43117U 88053E   20338.50397592  .00000052  00000-0  26321-4 0  9991
2 43117  74.0533  60.2356 0020807 352.1154   7.9669 14.36953682152888
Source of the keplerian elements: AFSPC